Location: Bauerbach
(50.4985°N, 10.3912°E)
Time: 22:12:57
(UTC+00:00)

CZ-4 R/B - Visible Passes

Search period start: 18 April 2026 00:00
Search period end: 28 April 2026 00:00
Orbit: 674 x 744 km, 98.7° (Epoch: 18 April)

Date Brightness Start Highest point End Pass type
(mag) Time Alt. Az. Time Alt. Az. Time Alt. Az.
18 Apr 6.8 03:41:32 10° NE 03:44:12 15° E 03:46:51 10° SE visible
20 Apr 6.9 03:33:51 10° ENE 03:35:50 13° E 03:37:50 10° ESE visible
22 Apr 7.3 03:26:44 10° ENE 03:27:28 10° E 03:28:12 10° E visible
